EW8829 Weather Reports


Display with metric or nautical units.
time (UTC)temp
F
wind
direction
speed
MPH
gust
MPH
rain 1hr
in
rain 24hr
in
rain mn
in
humidity
%
barometer
mb
20260510121952 48 63 2.0 3.0 0.00 0.07 0.07 99 1010.5
20260510121449 48 60 2.0 3.0 0.00 0.07 0.07 99 1010.5
20260510120947 48 82 2.0 3.0 0.00 0.07 0.07 99 1010.4
20260510120444 48 29 2.0 3.0 0.00 0.07 0.07 99 1010.5
20260510115940 48 52 2.0 3.0 0.00 0.07 0.07 99 1010.3
20260510115437 48 78 3.0 4.0 0.00 0.07 0.07 99 1010.1
20260510114933 48 80 2.0 2.0 0.00 0.07 0.07 99 1010.2
20260510114430 48 54 2.0 2.0 0.00 0.07 0.07 99 1010.0
20260510113925 47 85 1.0 2.0 0.00 0.07 0.07 99 1009.9
20260510113421 47 61 2.0 3.0 0.00 0.07 0.07 99 1009.9
20260510112919 47 47 2.0 2.0 0.00 0.07 0.07 99 1009.9
20260510112416 47 84 2.0 3.0 0.00 0.07 0.07 99 1009.9
20260510111912 47 66 2.0 3.0 0.00 0.07 0.07 99 1009.7
20260510111408 47 55 2.0 2.0 0.00 0.07 0.07 99 1009.5
20260510110903 47 69 2.0 3.0 0.00 0.07 0.07 99 1009.7
20260510110400 46 81 2.0 3.0 0.00 0.07 0.07 99 1009.5
20260510105857 46 91 2.0 2.0 0.00 0.07 0.07 99 1009.3
20260510105356 46 95 2.0 2.0 0.00 0.07 0.07 99 1009.4
20260510104853 46 101 0.0 2.0 0.00 0.07 0.07 99 1008.9
20260510104350 46 92 2.0 2.0 0.00 0.07 0.07 99 1008.8
20260510103846 46 84 1.0 2.0 0.00 0.07 0.07 99 1009.0
20260510103344 46 53 1.0 2.0 0.00 0.07 0.07 99 1009.0
20260510102839 46 81 2.0 3.0 0.00 0.07 0.07 99 1008.7
20260510102335 46 89 2.0 3.0 0.00 0.07 0.07 99 1009.1
20260510101832 46 58 2.0 2.0 0.00 0.07 0.07 99 1008.9
20260510101330 46 53 2.0 2.0 0.00 0.07 0.07 99 1008.6
20260510100826 46 55 1.0 1.0 0.00 0.07 0.07 99 1008.8
20260510100324 46 45 2.0 2.0 0.00 0.07 0.07 99 1008.5
20260510095820 46 67 3.0 3.0 0.00 0.07 0.07 99 1008.5
20260510095314 46 61 2.0 2.0 0.00 0.07 0.07 99 1008.5
20260510094808 46 48 0.0 2.0 0.00 0.07 0.07 99 1008.5
20260510094304 46 7 1.0 2.0 0.00 0.07 0.07 99 1008.2
20260510093800 46 15 1.0 2.0 0.00 0.07 0.07 99 1008.2
20260510093257 46 45 3.0 3.0 0.00 0.07 0.07 99 1008.1
20260510092753 46 37 2.0 2.0 0.00 0.07 0.07 99 1007.9
20260510092249 46 39 1.0 2.0 0.00 0.07 0.07 99 1008.2
20260510091745 46 58 0.0 2.0 0.00 0.07 0.07 99 1008.0
20260510091242 46 66 2.0 2.0 0.00 0.07 0.07 99 1008.0
20260510090738 46 53 2.0 3.0 0.00 0.07 0.07 99 1008.1
20260510090236 46 58 2.0 3.0 0.00 0.07 0.07 99 1008.0
20260510085731 46 50 3.0 3.0 0.00 0.07 0.07 99 1007.7
20260510085225 46 41 3.0 3.0 0.00 0.07 0.07 99 1007.8
20260510084721 46 42 2.0 3.0 0.00 0.07 0.07 99 1007.4
20260510084219 46 46 3.0 3.0 0.00 0.07 0.07 99 1007.6
20260510083715 46 51 3.0 3.0 0.00 0.07 0.07 99 1007.6
20260510083213 46 70 2.0 3.0 0.00 0.07 0.07 99 1007.7
20260510082708 46 71 2.0 3.0 0.00 0.07 0.07 99 1007.7
20260510082205 46 86 1.0 2.0 0.00 0.07 0.07 99 1007.6
20260510081659 45 36 1.0 2.0 0.00 0.07 0.07 99 1007.8
20260510081155 45 81 2.0 2.0 0.00 0.07 0.07 99 1007.5
20260510080654 46 78 2.0 3.0 0.00 0.07 0.07 99 1007.4
20260510080151 46 126 0.0 3.0 0.00 0.07 0.07 99 1007.6
20260510075648 46 66 2.0 2.0 0.00 0.07 0.07 99 1007.1
20260510075146 46 19 1.0 2.0 0.00 0.07 0.07 99 1007.1
20260510074643 46 95 1.0 2.0 0.00 0.07 0.07 99 1007.4
20260510074138 46 131 0.0 2.0 0.00 0.07 0.07 99 1007.2
20260510073635 47 108 2.0 2.0 0.00 0.07 0.07 99 1007.2
20260510073131 47 38 1.0 2.0 0.00 0.07 0.07 99 1007.1
20260510072627 46 37 1.0 2.0 0.00 0.07 0.07 99 1007.0
20260510072124 46 84 1.0 2.0 0.00 0.07 0.07 99 1007.0
20260510071620 47 55 0.0 2.0 0.00 0.07 0.07 99 1007.1
20260510071118 47 65 2.0 2.0 0.00 0.07 0.07 99 1007.2
20260510070614 47 42 2.0 3.0 0.00 0.07 0.07 99 1006.9
20260510070112 48 43 0.0 1.0 0.00 0.07 0.07 99 1006.9
20260510065608 48 55 0.0 0.0 0.00 0.07 0.07 99 1007.2
20260510065104 48 26 2.0 2.0 0.00 0.07 0.07 99 1007.0
20260510064600 48 330 0.0 1.0 0.00 0.07 0.07 99 1007.0
20260510064058 48 339 0.0 1.0 0.00 0.07 0.07 99 1006.9
20260510063555 48 358 0.0 2.0 0.00 0.07 0.07 99 1006.9
20260510063051 48 68 1.0 2.0 0.00 0.07 0.07 99 1007.1
20260510062547 48 66 2.0 2.0 0.02 0.07 0.07 99 1007.1
20260510062043 49 15 0.0 2.0 0.02 0.07 0.07 99 1007.2
20260510061539 49 46 1.0 2.0 0.00 0.07 0.07 99 1007.5
20260510061036 49 36 3.0 3.0 0.00 0.07 0.07 99 1007.5
20260510060532 49 33 3.0 3.0 0.00 0.07 0.07 99 1007.4
20260510060029 49 56 2.0 3.0 0.00 0.07 0.07 99 1007.6
20260510055525 49 22 2.0 3.0 0.00 0.07 0.07 99 1007.8
20260510055024 49 108 3.0 4.0 0.00 0.07 0.07 99 1006.9
20260510054519 49 275 0.0 2.0 0.00 0.07 0.07 99 1007.6
20260510054014 49 339 2.0 4.0 0.00 0.07 0.07 99 1007.8
20260510053509 49 352 1.0 2.0 0.00 0.07 0.07 99 1007.7
20260510053006 49 358 2.0 2.0 0.00 0.07 0.07 99 1008.0
20260510052502 49 96 1.0 1.0 0.02 0.07 0.07 99 1008.1
20260510051958 49 31 0.0 2.0 0.02 0.07 0.07 99 1008.1
20260510051454 49 125 1.0 2.0 0.00 0.06 0.06 99 1008.1
20260510050950 49 34 0.0 2.0 0.02 0.06 0.06 99 1008.2
20260510050448 49 81 0.0 2.0 0.02 0.06 0.06 99 1008.4
20260510045945 50 139 3.0 5.0 0.09 0.06 0.06 99 1008.5
20260510045442 50 92 2.0 3.0 0.14 0.06 0.06 99 1008.3
20260510044938 50 6 1.0 2.0 0.14 0.04 0.04 99 1009.0
20260510044435 50 303 0.0 2.0 0.12 0.03 0.03 99 1008.8
20260510043932 50 88 1.0 2.0 0.09 0.02 0.02 98 1008.5
20260510043428 51 87 1.0 3.0 0.07 0.01 0.01 96 1008.6
20260510042926 51 75 2.0 2.0 0.02 0.00 0.00 95 1008.7
20260510042422 51 105 1.0 3.0 0.00 0.00 0.00 94 1008.7
20260510041918 51 68 2.0 3.0 0.00 0.00 0.00 98 1008.7
20260510041415 51 59 4.0 4.0 0.00 0.00 0.00 99 1008.9
20260510040913 51 47 1.0 3.0 0.00 0.00 0.00 99 1008.7
20260510040409 51 83 4.0 6.0 0.00 0.00 0.00 99 1008.6
20260510035905 51 89 2.0 5.0 0.00 0.37 0.37 99 1008.3
20260510035401 51 77 2.0 3.0 0.00 0.37 0.37 99 1008.5
20260510034856 51 89 2.0 4.0 0.00 0.37 0.37 99 1008.6
20260510034355 50 81 4.0 4.0 0.00 0.37 0.37 99 1008.2
20260510033851 51 112 3.0 7.0 0.00 0.37 0.37 99 1008.2
20260510033348 49 40 1.0 2.0 0.00 0.37 0.37 99 1007.4
20260510032844 49 305 2.0 2.0 0.00 0.37 0.37 99 1007.4
20260510032341 48 49 0.0 2.0 0.00 0.37 0.37 99 1007.0
20260510031836 48 315 0.0 1.0 0.00 0.37 0.37 99 1007.2
20260510031332 48 315 0.0 1.0 0.00 0.37 0.37 99 1007.2
20260510030832 48 78 1.0 2.0 0.00 0.37 0.37 99 1007.2
20260510030328 48 67 1.0 2.0 0.00 0.37 0.37 99 1007.5
20260510025826 48 96 2.0 2.0 0.00 0.37 0.37 99 1007.2
20260510025323 48 66 0.0 2.0 0.00 0.37 0.37 99 1007.2
20260510024820 48 66 1.0 2.0 0.00 0.37 0.37 99 1007.1
20260510024317 48 84 1.0 2.0 0.00 0.37 0.37 99 1007.1
20260510023813 49 98 2.0 2.0 0.00 0.37 0.37 99 1006.8
20260510023309 49 16 2.0 2.0 0.00 0.37 0.37 99 1006.8
20260510022807 49 356 0.0 2.0 0.00 0.37 0.37 99 1006.5
20260510022307 49 19 0.0 2.0 0.00 0.37 0.37 99 1006.5
20260510021805 49 38 0.0 2.0 0.00 0.37 0.37 99 1006.5
20260510021304 49 44 1.0 2.0 0.00 0.37 0.37 99 1006.3
20260510020759 49 28 1.0 2.0 0.00 0.37 0.37 99 1006.4
20260510020254 48 327 1.0 2.0 0.00 0.37 0.37 99 1006.4
20260510015750 48 91 2.0 2.0 0.00 0.37 0.37 99 1006.5
20260510015247 49 72 1.0 2.0 0.00 0.37 0.37 99 1006.7
20260510014742 49 86 2.0 2.0 0.00 0.37 0.37 99 1006.3
20260510014239 50 48 0.0 2.0 0.00 0.37 0.37 99 1006.4
20260510013735 50 47 2.0 2.0 0.00 0.37 0.37 99 1006.2
20260510013231 50 72 1.0 2.0 0.00 0.37 0.37 99 1006.2
20260510012731 51 69 0.0 2.0 0.00 0.37 0.37 99 1006.3
20260510012226 51 17 0.0 1.0 0.00 0.37 0.37 99 1006.3
20260510011720 51 35 0.0 1.0 0.00 0.37 0.37 99 1006.3
20260510011216 51 145 0.0 3.0 0.00 0.37 0.37 98 1006.3
20260510010713 51 352 1.0 2.0 0.00 0.37 0.37 99 1006.3
20260510010210 51 175 2.0 2.0 0.00 0.37 0.37 99 1006.2
20260510005707 51 338 1.0 2.0 0.00 0.37 0.37 99 1005.9
20260510005203 51 291 0.0 2.0 0.00 0.37 0.37 99 1005.9
20260510004702 51 245 0.0 2.0 0.00 0.37 0.37 99 1005.8
20260510004158 51 331 2.0 3.0 0.00 0.37 0.37 99 1005.9
20260510003656 51 343 1.0 2.0 0.00 0.37 0.37 99 1005.8
20260510003151 51 351 0.0 1.0 0.00 0.37 0.37 99 1005.6
20260510002646 52 336 1.0 2.0 0.00 0.37 0.37 99 1005.6
20260510002143 52 37 1.0 2.0 0.00 0.37 0.37 99 1005.6
20260510001640 52 37 1.0 2.0 0.00 0.37 0.37 99 1005.5
20260510001139 52 67 0.0 2.0 0.00 0.37 0.37 99 1005.5
20260510000638 52 337 0.0 2.0 0.00 0.37 0.37 99 1005.6
20260510000136 52 315 2.0 2.0 0.00 0.37 0.37 99 1005.6
20260509235632 52 55 0.0 2.0 0.00 0.37 0.37 99 1005.5
20260509235129 52 284 1.0 2.0 0.00 0.37 0.37 99 1005.7
20260509234625 52 38 0.0 2.0 0.00 0.37 0.37 99 1005.6
20260509234123 52 316 2.0 2.0 0.00 0.37 0.37 99 1005.4
20260509233620 53 339 0.0 2.0 0.00 0.37 0.37 99 1005.2
20260509233117 53 58 1.0 2.0 0.00 0.37 0.37 98 1005.2
20260509232613 53 336 0.0 2.0 0.00 0.37 0.37 98 1005.3
20260509232111 53 332 1.0 2.0 0.00 0.37 0.37 98 1005.3
20260509231607 54 322 1.0 2.0 0.00 0.37 0.37 97 1005.2
20260509231105 55 326 0.0 2.0 0.00 0.37 0.37 95 1005.1
20260509230601 55 76 0.0 2.0 0.00 0.37 0.37 93 1005.0
20260509230059 55 83 1.0 2.0 0.00 0.37 0.37 93 1005.0
20260509225554 55 97 2.0 3.0 0.00 0.37 0.37 93 1005.2
20260509225050 55 60 1.0 3.0 0.00 0.37 0.37 94 1005.1
20260509224545 55 29 1.0 3.0 0.00 0.37 0.37 93 1005.3
20260509224043 55 48 0.0 3.0 0.00 0.37 0.37 92 1005.6
20260509223539 56 122 4.0 4.0 0.00 0.37 0.37 93 1005.5
20260509223037 55 337 0.0 2.0 0.00 0.37 0.37 94 1005.5
20260509222533 55 240 3.0 4.0 0.00 0.37 0.37 94 1005.4
20260509222029 55 218 1.0 2.0 0.00 0.37 0.37 94 1005.2
20260509221525 55 202 5.0 5.0 0.00 0.37 0.37 94 1005.2
20260509221021 55 323 2.0 4.0 0.00 0.37 0.37 95 1005.2
20260509220517 55 201 2.0 5.0 0.00 0.37 0.37 95 1005.2
20260509220014 55 203 2.0 6.0 0.00 0.37 0.37 94 1005.4
20260509215509 55 207 2.0 3.0 0.00 0.37 0.37 95 1005.4
20260509215007 55 214 0.0 2.0 0.00 0.37 0.37 95 1005.5
20260509214504 55 194 1.0 3.0 0.00 0.37 0.37 95 1005.3
20260509214000 55 126 2.0 5.0 0.00 0.37 0.37 95 1005.6
20260509213456 55 182 2.0 3.0 0.00 0.37 0.37 95 1005.4
20260509212954 55 243 0.0 4.0 0.00 0.37 0.37 95 1005.4
20260509212451 55 216 2.0 4.0 0.00 0.37 0.37 95 1005.7
20260509211947 55 49 1.0 6.0 0.00 0.37 0.37 96 1005.6
20260509211442 55 230 1.0 4.0 0.00 0.37 0.37 97 1005.6
20260509210939 55 243 4.0 5.0 0.00 0.37 0.37 96 1005.7
20260509210437 55 258 3.0 4.0 0.00 0.37 0.37 97 1005.8
20260509205933 54 53 2.0 4.0 0.00 0.37 0.37 98 1005.9
20260509205433 54 355 3.0 4.0 0.00 0.37 0.37 98 1005.8
20260509204929 54 258 2.0 2.0 0.00 0.37 0.37 99 1006.0
20260509204425 53 177 0.0 2.0 0.02 0.37 0.37 99 1006.0
20260509203922 53 156 0.0 3.0 0.02 0.37 0.37 99 1006.0
20260509203418 53 36 0.0 3.0 0.00 0.36 0.36 99 1006.1
20260509202915 53 97 2.0 3.0 0.00 0.36 0.36 99 1006.0
20260509202411 53 88 1.0 3.0 0.00 0.36 0.36 99 1006.1
20260509201907 53 122 2.0 2.0 0.00 0.36 0.36 99 1006.3
20260509201402 53 106 0.0 2.0 0.00 0.36 0.36 99 1006.2
20260509200859 52 77 0.0 3.0 0.00 0.36 0.36 99 1006.3
20260509200354 53 47 2.0 2.0 0.00 0.36 0.36 99 1006.3
20260509195851 52 41 2.0 4.0 0.00 0.36 0.36 99 1006.3
20260509195346 52 107 2.0 2.0 0.02 0.36 0.36 99 1006.4
20260509194845 52 72 0.0 2.0 0.00 0.36 0.36 99 1006.6
20260509194342 52 232 0.0 2.0 0.00 0.36 0.36 99 1006.6
20260509193838 52 100 1.0 1.0 0.00 0.36 0.36 99 1006.6
20260509193338 52 24 0.0 2.0 0.00 0.36 0.36 99 1006.6
20260509192835 52 41 1.0 3.0 0.00 0.36 0.36 99 1006.8
20260509192331 52 100 1.0 3.0 0.00 0.36 0.36 99 1006.8
20260509191826 52 98 2.0 2.0 0.00 0.36 0.36 99 1006.8
20260509191322 52 63 2.0 2.0 0.02 0.36 0.36 99 1006.9
20260509190818 52 86 2.0 2.0 0.02 0.36 0.36 99 1006.8
20260509190315 52 173 2.0 3.0 0.05 0.35 0.35 99 1006.9
20260509185813 52 94 1.0 3.0 0.02 0.35 0.35 99 1007.1
20260509185308 52 135 1.0 3.0 0.05 0.35 0.35 98 1006.9
20260509184806 52 83 1.0 4.0 0.07 0.35 0.35 98 1007.0
20260509184303 52 134 2.0 3.0 0.02 0.34 0.34 98 1006.8
20260509183759 52 87 2.0 2.0 0.00 0.34 0.34 98 1006.9
20260509183255 52 82 0.0 3.0 0.00 0.34 0.34 98 1006.9
20260509182750 52 335 1.0 3.0 0.02 0.34 0.34 98 1006.9
20260509182248 52 253 2.0 3.0 0.02 0.34 0.34 98 1006.8
20260509181745 52 117 1.0 2.0 0.00 0.33 0.33 98 1006.8
20260509181243 52 119 1.0 3.0 0.00 0.33 0.33 97 1007.0
20260509180740 52 14 3.0 5.0 0.00 0.33 0.33 96 1006.9
20260509180236 53 266 3.0 10.0 0.00 0.33 0.33 95 1006.8
20260509175733 53 88 2.0 4.0 0.00 0.33 0.33 96 1006.9
20260509175229 53 70 0.0 5.0 0.00 0.33 0.33 96 1006.7
20260509174725 53 237 3.0 6.0 0.00 0.33 0.33 96 1006.7
20260509174220 52 139 2.0 5.0 0.00 0.33 0.33 96 1006.8
20260509173717 52 215 6.0 6.0 0.00 0.33 0.33 97 1006.8
20260509173212 52 169 2.0 6.0 0.00 0.33 0.33 97 1006.9
20260509172708 52 13 0.0 4.0 0.00 0.33 0.33 98 1006.8
20260509172205 51 180 2.0 6.0 0.00 0.33 0.33 98 1006.7
20260509171700 51 111 1.0 5.0 0.00 0.33 0.33 99 1006.6
20260509171157 51 127 2.0 2.0 0.00 0.33 0.33 99 1006.5
20260509170654 51 172 1.0 3.0 0.00 0.33 0.33 99 1006.8
20260509170150 51 75 2.0 2.0 0.00 0.33 0.33 99 1006.8
20260509165648 51 164 1.0 2.0 0.00 0.33 0.33 99 1006.7
20260509165144 51 119 1.0 6.0 0.00 0.33 0.33 99 1007.0
20260509164640 51 218 3.0 4.0 0.00 0.33 0.33 99 1006.9
20260509164136 51 132 1.0 2.0 0.00 0.33 0.33 99 1007.0
20260509163634 51 111 3.0 3.0 0.02 0.33 0.33 99 1006.8
20260509163129 51 88 2.0 2.0 0.02 0.33 0.33 99 1007.1
20260509162627 51 60 2.0 4.0 0.00 0.33 0.33 99 1007.1
20260509162123 51 193 2.0 3.0 0.02 0.33 0.33 99 1007.0
20260509161619 51 118 2.0 3.0 0.02 0.33 0.33 99 1007.1
20260509161114 51 262 2.0 3.0 0.00 0.32 0.32 99 1007.1
20260509160610 51 35 1.0 3.0 0.00 0.32 0.32 99 1007.2
20260509160105 51 284 3.0 5.0 0.00 0.32 0.32 99 1007.4
20260509155602 52 0 0.0 3.0 0.00 0.32 0.32 99 1007.5
20260509155058 51 135 0.0 5.0 0.00 0.32 0.32 99 1007.4
20260509154554 51 78 3.0 3.0 0.00 0.32 0.32 99 1007.6
20260509154052 51 106 2.0 5.0 0.00 0.32 0.32 99 1007.5
20260509153549 51 240 2.0 4.0 0.00 0.32 0.32 99 1007.6
20260509153046 51 96 1.0 2.0 0.00 0.32 0.32 99 1007.6
20260509152542 51 147 0.0 4.0 0.00 0.32 0.32 99 1007.5
20260509152039 51 18 2.0 3.0 0.02 0.32 0.32 99 1007.8
20260509151535 51 114 2.0 3.0 0.02 0.32 0.32 99 1007.9
20260509151033 51 143 0.0 4.0 0.00 0.32 0.32 99 1008.0
20260509150530 51 296 1.0 3.0 0.00 0.32 0.32 99 1007.8
20260509150029 51 6 1.0 3.0 0.02 0.32 0.32 99 1007.7
20260509145524 51 87 1.0 2.0 0.02 0.32 0.32 99 1007.7
20260509145019 50 23 0.0 2.0 0.05 0.32 0.32 99 1008.0
20260509144516 50 77 1.0 2.0 0.07 0.32 0.32 99 1007.9
20260509144013 50 127 2.0 4.0 0.02 0.31 0.31 99 1008.2
20260509143510 50 111 1.0 2.0 0.02 0.30 0.30 99 1008.2
20260509143008 50 68 1.0 3.0 0.05 0.30 0.30 99 1008.1
20260509142504 50 121 0.0 2.0 0.05 0.30 0.30 99 1008.1
20260509141959 50 127 1.0 2.0 0.02 0.29 0.29 99 1008.1
20260509141455 49 177 1.0 2.0 0.02 0.29 0.29 99 1008.1
20260509140953 49 202 0.0 2.0 0.02 0.29 0.29 99 1008.1
20260509140449 49 113 1.0 2.0 0.05 0.29 0.29 99 1008.3
20260509135947 49 124 0.0 2.0 0.05 0.28 0.28 99 1008.1
20260509135444 49 33 0.0 2.0 0.05 0.28 0.28 99 1008.3
20260509134941 49 347 1.0 2.0 0.05 0.28 0.28 99 1008.0
20260509134439 49 336 0.0 2.0 0.02 0.27 0.27 99 1008.1
20260509133937 49 272 1.0 3.0 0.02 0.27 0.27 99 1008.3
20260509133433 49 120 1.0 2.0 0.05 0.27 0.27 99 1008.1
20260509132931 49 208 2.0 4.0 0.05 0.26 0.26 99 1008.3
20260509132429 48 171 0.0 3.0 0.05 0.26 0.26 99 1008.1
20260509131925 48 237 3.0 5.0 0.05 0.26 0.26 99 1008.4
20260509131423 48 310 2.0 3.0 0.02 0.25 0.25 99 1008.4
20260509130919 48 267 2.0 3.0 0.02 0.25 0.25 99 1008.3
20260509130414 48 184 0.0 3.0 0.02 0.24 0.24 99 1008.4
20260509125912 48 128 3.0 3.0 0.05 0.24 0.24 99 1008.4
20260509125409 48 82 0.0 2.0 0.05 0.24 0.24 99 1008.4
20260509124904 47 343 0.0 2.0 0.05 0.23 0.23 99 1008.2
20260509124402 47 12 0.0 3.0 0.07 0.23 0.23 99 1008.4
20260509123859 47 127 3.0 3.0 0.09 0.22 0.22 99 1008.4
20260509123356 47 48 3.0 3.0 0.09 0.22 0.22 99 1008.4
20260509122852 47 34 3.0 3.0 0.14 0.21 0.21 99 1008.6